Weather observations for the past three days for
Douglas, Douglas Municipal Airport
Imperial (Metric)
Date Time (edt) Wind (mph) Vis. (mi.) Weather Sky Cond. Temperature (ºF) Relative Humidity Wind Chill (°F) Heat Index (°F) Pressure Precipitation (in)
Air Dwpt 6 hour altimeter (in) sea level (mb) 1 hr 3 hr 6 hr
Max. Min.
12 14:15 N 5 10.00 Mostly Cloudy SCT060 SCT080 BKN090 90.7 65.8 44% 93 30.07 0.0
12 13:55 NE 7 10.00 Overcast SCT060 BKN070 OVC090 90 64.8 43% 92 30.07 0.0
12 13:35 N 6 10.00 Mostly Cloudy SCT060 BKN075 BKN090 90.9 66.2 44% 94 30.08 0.0
12 13:15 NW 7 10.00 Mostly Cloudy SCT050 SCT070 BKN090 91.2 66.7 45% 94 30.08 0.0
12 12:55 N 6 10.00 Partly Cloudy SCT050 SCT090 90.5 66 44% 93 30.08 0.0
12 12:35 N 6 10.00 Partly Cloudy SCT050 91 67.8 47% 95 30.08 0.0
12 12:15 NW 6 10.00 Partly Cloudy SCT050 90.1 67.1 47% 93 30.08 0.0
12 11:55 N 6 10.00 Fair CLR 89.8 67.5 48% 93 30.08 0.0
12 11:35 N 3 10.00 Partly Cloudy SCT080 89.1 70 53% 94 30.08 0.0
12 11:15 NW 6 10.00 Mostly Cloudy BKN080 88.5 71.6 57% 95 30.09 0.0
12 10:55 Calm 10.00 Partly Cloudy SCT080 87.3 71.4 59% 93 30.09 0.0
12 10:35 E 3 10.00 Fair CLR 87.1 70.7 58% 93 30.09 0.0
12 10:15 NE 3 10.00 Partly Cloudy SCT080 86 71.4 62% 92 30.08 0.0
12 09:55 NE 3 10.00 Mostly Cloudy BKN080 84.7 71.2 64% 90 30.07 0.0
12 09:35 Calm 10.00 Mostly Cloudy BKN080 83.5 70.2 64% 88 30.07 0.0
12 09:15 Calm 10.00 Partly Cloudy SCT080 82.4 69.6 65% 86 30.07 0.0
12 08:55 Calm 10.00 Fair CLR 81.3 68.7 66% 84 30.06 0.0
12 08:35 NE 3 10.00 Fair CLR 80.1 68 67% 83 30.05 0.0
12 08:15 Calm 10.00 Fair CLR 78.6 68.4 71% 81 30.05 0.0
12 07:55 Calm 10.00 Fair CLR 76.1 69.3 79% 77 30.04 0.0
12 07:35 Calm 10.00 Fair CLR 73 69.8 90% 30.03 0.0
12 07:15 Calm 10.00 Fair CLR 71.6 69.4 93% 30.02 0.0
12 06:55 Calm 10.00 Fair CLR 71.4 68.9 92% 30.02 0.0
12 06:35 Calm 10.00 Fair CLR 71.8 68.9 91% 30.02 0.0
12 06:15 Calm 10.00 Fair CLR 71.8 68.5 90% 30.01 0.0
12 05:55 Calm 10.00 Fair CLR 71.8 68.7 90% 30.01 0.0
12 05:35 Calm 10.00 Fair CLR 72.1 68.9 90% 30 0.0
12 05:15 Calm 10.00 Fair CLR 72.3 68.7 89% 29.99 0.0
12 04:55 Calm 10.00 Fair CLR 73.2 69.3 87% 29.99 0.0
12 04:35 Calm 10.00 Fair CLR 73.4 69.8 89% 29.99 0.0
12 04:15 Calm 10.00 Fair CLR 73.6 70.5 90% 29.99 0.0
12 03:55 Calm 10.00 Partly Cloudy SCT080 73.8 70.9 91% 30 0.0
12 03:35 Calm 10.00 Mostly Cloudy BKN080 73.2 70.3 91% 30 0.0
12 03:15 Calm 10.00 Mostly Cloudy SCT065 BKN080 73.9 70.3 89% 30.01 0.0
12 02:55 Calm 10.00 Mostly Cloudy BKN065 BKN080 73.4 70.2 90% 30.01 0.0
12 02:35 Calm 10.00 Mostly Cloudy SCT065 BKN080 72.9 69.8 90% 30.01 0.0
12 02:15 Calm 10.00 Fair CLR 74.1 70 87% 30.01 0.0
12 01:55 Calm 10.00 Fair CLR 75.2 70 84% 75 30.01 0.0
12 01:35 Calm 10.00 Fair CLR 76.5 69.8 80% 78 30.01 0.0
12 01:15 Calm 10.00 Fair CLR 77.2 69.3 77% 79 30.01 0.0
12 00:55 Calm 10.00 Fair CLR 77.2 69.1 76% 79 30.01 0.0
12 00:35 Calm 10.00 Fair CLR 76.8 69.4 78% 78 30.01 0.0
12 00:15 Calm 10.00 Fair CLR 76.6 71.1 83% 78 30.01 0.0
11 23:55 Calm 10.00 Fair CLR 77 71.2 82% 78 30 0.0
11 23:35 Calm 10.00 Fair CLR 76.5 71.2 84% 77 30 0.0
11 23:15 Calm 10.00 Fair CLR 77 70.7 81% 79 30 0.0
11 22:55 Calm 10.00 Fair CLR 77.9 70.9 79% 80 30.01 0.0
11 22:35 Calm 10.00 Fair CLR 79.3 69.8 73% 82 30.01 0.0
11 22:15 Calm 10.00 Fair CLR 80.8 68.4 66% 84 30 0.0
11 21:55 Calm 10.00 Fair CLR 80.6 68.7 67% 84 30 0.0
11 21:35 Calm 10.00 Fair CLR 82.4 68.2 62% 85 30 0.0
11 21:15 Calm 10.00 Fair CLR 84.4 66.7 56% 87 30 0.0
11 20:55 Calm 10.00 Fair CLR 85.6 66.2 52% 88 29.99 0.0
11 20:35 W 3 10.00 Fair CLR 86.7 66 50% 89 29.99 0.0
11 20:15 W 3 10.00 Fair CLR 87.8 65.8 48% 90 29.98 0.0
11 19:55 NW 5 10.00 Fair CLR 88.7 66.2 47% 91 29.98 0.0
11 19:35 NW 5 10.00 Fair CLR 89.2 66.7 47% 92 29.97 0.0
11 19:15 NW 5 10.00 Fair CLR 89.8 66 46% 92 29.97 0.0
11 18:55 NW 5 10.00 Fair CLR 90.5 66 44% 93 29.97 0.0
11 18:35 N 6 10.00 Partly Cloudy SCT055 90.7 65.8 44% 93 29.97 0.0
11 18:15 NW 8 10.00 Fair CLR 90.9 66 44% 94 29.97 0.0
11 17:55 W 7 10.00 Partly Cloudy SCT055 90.9 66.4 45% 94 29.96 0.0
11 17:35 NW 7 10.00 Fair CLR 90.9 66.7 45% 94 29.96 0.0
11 17:15 NW 8 10.00 Fair CLR 90.7 66.2 45% 93 29.97 0.0
11 16:55 NW 9 10.00 Partly Cloudy SCT050 90.9 66.4 45% 94 29.97 0.0
11 16:35 NW 6 10.00 Partly Cloudy SCT050 90.5 66.7 46% 94 29.98 0.0
11 16:15 Calm 10.00 Partly Cloudy SCT050 90.1 66.6 46% 93 29.98 0.0
11 15:55 N 7 10.00 Partly Cloudy SCT050 89.8 67.3 48% 93 29.98 0.0
11 15:35 NW 6 10.00 Fair CLR 89.8 68 49% 94 29.98 0.0
11 15:15 NW 6 10.00 Partly Cloudy SCT048 89.8 68.2 49% 94 29.98 0.0
11 14:55 NW 7 10.00 Partly Cloudy SCT048 89.2 68.4 50% 93 29.98 0.0
11 14:35 N 7 10.00 Fair CLR 88.9 68.4 51% 93 29.98 0.0
11 02:35 NW 3 10.00 Fair CLR 77.4 74.7 91% 79 29.96 0.0
11 02:15 Calm 10.00 Fair CLR 77.4 74.8 92% 79 29.97 0.0
10 14:15 SW 9 10.00 Mostly Cloudy SCT027 SCT032 BKN038 83.1 74.7 76% 90 29.99 0.0
10 13:55 W 7 G 10 10.00 Overcast SCT027 BKN032 OVC070 86.5 74.7 68% 95 29.98 0.0
10 13:35 W 8 10.00 Mostly Cloudy SCT034 SCT055 BKN065 89.4 74.1 61% 99 29.97 0.0
10 13:15 W 7 10.00 Mostly Cloudy BKN032 BKN038 BKN048 88.9 75 64% 99 29.98 0.0
10 12:55 NW 7 10.00 Mostly Cloudy BKN030 BKN036 BKN046 88 74.7 65% 97 29.99 0.0
10 12:35 W 5 10.00 Mostly Cloudy SCT028 BKN038 BKN044 88 74.7 65% 97 29.99 0.0
10 12:15 W 9 10.00 Mostly Cloudy SCT028 SCT034 BKN044 87.4 74.8 66% 97 30 0.0
10 11:55 W 8 10.00 Partly Cloudy SCT023 87.1 75.2 68% 97 30 0.0
10 11:35 NW 5 10.00 Partly Cloudy SCT023 SCT050 86.2 74.7 69% 95 30 0.0
10 11:15 W 6 10.00 Mostly Cloudy SCT020 SCT026 BKN050 85.3 75.4 72% 94 30 0.0
10 10:55 W 7 10.00 Mostly Cloudy SCT020 SCT026 BKN050 85.3 75.4 72% 94 30.01 0.0
10 10:35 W 8 10.00 Mostly Cloudy SCT018 SCT023 BKN048 84.2 75.4 75% 93 30.01 0.0
10 10:15 W 6 10.00 Mostly Cloudy BKN016 BKN025 83.7 75.6 77% 92 30.01 0.0
10 09:55 W 5 10.00 Mostly Cloudy BKN014 BKN025 BKN031 82 76.1 82% 89 30.02 0.0
10 09:35 W 8 10.00 Overcast BKN014 OVC020 81.7 76.1 83% 89 30.01 0.0
10 09:15 W 5 10.00 Overcast BKN012 OVC022 81.3 76.3 85% 88 30.01 0.0
10 08:55 W 6 10.00 Overcast OVC012 80.1 76.8 90% 86 30.01 0.0
10 08:35 W 6 10.00 Overcast OVC008 79.2 77 93% 84 30.01 0.0
10 08:15 W 6 10.00 Mostly Cloudy BKN006 78.4 77.2 96% 82 30 0.0
10 07:55 SW 6 10.00 Partly Cloudy SCT006 77.7 76.8 97% 80 30 0.0
10 07:35 SW 3 10.00 Partly Cloudy SCT008 77.2 76.3 97% 78 30 0.0
10 07:15 Calm 7.00 Fair CLR 76.5 75.6 97% 76 30 0.0
10 06:55 Calm 7.00 Fair CLR 76.3 75.4 97% 76 29.99 0.0
10 06:35 SW 3 10.00 Fair CLR 76.3 75.4 97% 76 29.98 0.0
10 06:15 SW 5 10.00 Fair CLR 76.5 75.6 97% 76 29.99 0.0
10 05:55 Calm 10.00 Fair CLR 76.5 75.6 97% 76 29.98 0.0
10 05:35 SW 3 10.00 Fair CLR 76.6 75.6 96% 77 29.98 0.0
10 05:15 SW 5 10.00 Fair CLR 76.5 75.4 96% 76 29.97 0.0
10 04:55 SW 3 10.00 Fair CLR 76.6 75.6 96% 77 29.97 0.0
10 04:35 SW 5 10.00 Fair CLR 77 75.6 95% 78 29.97 0.0
10 04:15 SW 3 10.00 Fair CLR 77.2 75.6 95% 78 29.97 0.0
10 03:55 SW 5 10.00 Fair CLR 77.7 75.6 93% 80 29.97 0.0
10 03:35 SW 5 10.00 Fair CLR 78.3 75.7 92% 81 29.96 0.0
10 03:15 W 5 10.00 Fair CLR 78.4 75.7 91% 82 29.97 0.0
10 02:55 W 5 10.00 Fair CLR 78.8 75.7 90% 82 29.97 0.0
10 02:35 W 7 10.00 Fair CLR 78.6 76.1 92% 82 29.97 0.0
10 02:15 SW 6 10.00 Fair CLR 78.3 76.1 93% 81 29.98 0.0
10 01:55 SW 6 10.00 Fair CLR 78.3 76.1 93% 81 29.99 0.0
10 01:35 SW 6 10.00 Fair CLR 78.3 76.3 94% 81 29.99 0.0
10 01:15 SW 6 10.00 Fair CLR 78.4 76.6 94% 82 30 0.0
10 00:55 SW 5 10.00 Fair CLR 78.4 76.8 95% 82 30 0.0
10 00:35 SW 5 10.00 Fair CLR 78.3 77 96% 81 30 0.0
10 00:15 SW 5 10.00 Fair CLR 78.1 76.8 96% 81 30 0.0
09 23:55 Calm 10.00 Fair CLR 78.1 76.8 96% 81 30.01 0.0
09 23:35 Calm 10.00 Fair CLR 78.1 76.6 95% 81 30.01 0.0
09 23:15 Calm 10.00 Fair CLR 78.6 76.6 94% 82 30.01 0.0
09 22:55 Calm 10.00 Fair CLR 78.8 76.8 94% 83 30.01 0.0
09 22:35 Calm 10.00 Fair CLR 78.8 76.5 93% 83 30.01 0.0
09 22:15 Calm 10.00 Fair CLR 78.6 76.6 94% 82 30 0.0
09 21:55 SW 3 10.00 Fair CLR 78.6 76.6 94% 82 30 0.0
09 21:35 Calm 10.00 Fair CLR 79 76.5 92% 83 30 0.0
09 21:15 SW 3 10.00 Fair CLR 79.7 76.1 89% 85 30.01 0.0
09 20:55 Calm 10.00 Fair CLR 80.2 76.1 87% 86 30.01 0.0
09 20:35 Calm 10.00 Fair CLR 81 76.5 86% 88 30.01 0.0
09 20:15 Calm 10.00 Fair CLR 82 75 79% 89 30.01 0.0
09 19:55 W 6 10.00 Fair CLR 82.8 74.3 76% 89 30 0.0
09 19:35 W 3 10.00 Fair CLR 83.7 74.5 74% 91 30 0.0
09 19:15 W 7 10.00 Fair CLR 84 74.8 74% 92 30 0.0
09 18:55 W 6 10.00 Fair CLR 83.3 76.5 80% 92 29.98 0.0
09 18:35 SW 5 10.00 Fair CLR 81.9 76.5 84% 89 29.99 0.0
09 18:15 SW 7 10.00 Fair CLR 81.7 76.8 85% 89 29.98 0.0
09 17:55 W 5 10.00 Mostly Cloudy SCT031 SCT043 BKN050 81 75.4 83% 87 29.98 0.0
09 17:35 W 3 10.00 Light Rain SCT050 BKN070 OVC110 79.9 75.2 86% 85 29.99 0.0
09 17:15 W 3 10.00 Light Rain SCT050 SCT070 OVC100 78.8 74.8 88% 82 29.99 0.0
09 16:55 W 9 10.00 Rain BKN045 BKN060 OVC070 78.3 74.7 89% 81 30.01 0.0
09 16:35 SW 10 G 18 10.00 Thunderstorm Light Rain SCT027 BKN045 OVC050 79.2 74.5 86% 83 30.01 0.0
09 16:15 SW 16 G 28 10.00 Thunderstorm Light Rain in Vicinity BKN030 OVC047 86.5 74.1 67% 95 30 0.0
09 15:55 W 7 10.00 Thunderstorm in Vicinity BKN047 BKN070 BKN080 92.1 73.9 55% 102 29.98 0.0
09 15:35 W 6 10.00 Partly Cloudy SCT047 SCT050 92.5 73.2 53% 102 29.98 0.0
09 15:15 SW 7 10.00 Partly Cloudy SCT044 SCT050 92.7 73.6 54% 102 29.98 0.0
09 14:55 N 3 10.00 Partly Cloudy SCT044 92.1 73.6 55% 102 29.99 0.0
09 14:35 Calm 10.00 Mostly Cloudy SCT041 SCT048 BKN060 91.4 73.8 56% 101 30 0.0
Date Time (edt) Wind (mph) Vis. (mi.) Weather Sky Cond. Air Dwpt Max. Min. Relative Humidity Wind Chill (°F) Heat Index (°F) altimeter (in) sea level (mb) 1 hr 3 hr 6 hr
6 hour
Temperature (ºF) Pressure Precipitation (in)